DECAYED

CZ-4B DEB, 56087 (Decayed)

Orbit data source: Space-Track

CZ-4B DEB, 56087 was space debris in SSO originally from a launch on Wed, 24 Oct 2018 UTC launched from the Taiyaun Space Center, China (TSC). Debris objects in space refer to the collection of defunct objects orbiting the Earth. Examples of debris include non-operational satellites, rocket bodies, and fragments generated from explosions, collisions, or faulty payload assembly.

Not visible in the next 10 days
CZ-4B DEB details
Identifier
56087, 2018-081H
Orbit
Decayed
Last TLE update3 months ago
Origin
Flag of CNCNSA (CN / PRC)
ManufacturerUnknown
MissionDecayed spacecraft
Bus & MotorUnknown
MassUnknown
Launch date (UTC)
2018-10-24 (6 years ago)
Launch vehicleUnknown
Launch site
Taiyaun Space Center, China (TSC)
Object type
Payload
Rocket body
Debris
Shape & HBRUnknown
Radar Cross SectionSmall (<0.1 m²)

Expand to show TLE details & history

TLE from 3 months ago
0 CZ-4B DEB
1 56087U 18081H   24282.38455991  .00402236  00000-0  46596-1 0  9994
2 56087  99.4375 150.9491 0099243 201.5956 158.1052 14.79828892 83493
Epoch: 2024-10-08T09:13Z
Definitive object data (Epoch: 2024-10-08T09:13:45.976Z)
Latitude0.00001°
Longitude-4.99105°
Altitude697.476 km
Speed7.473 km/s
True Right ascension10h 03m 47s
True Declination0° 00' 00"
Sunlit
Object was in daylight at TLE epoch
Visualization TLE readout
Latitude23.62531°
Longitude88.18574°
Altitude10.99 km
Speed7.91 km/s
Apparent Right ascension19h 44m 17s
Apparent Declination-16° 10' 26"
Sunlit
Object is in daylight
Visualization observer readout
Local Sidereal Time12:25:27
Azimuth90.37° ESE
Elevation-25.285°
Doppler factor1
Orbital elements
Apogee altitude696.501 km
Perigee altitude557.459 km
Semi-major axis7,005.117 km
Eccentricity0.0099243
Inclination99.4375°
RAAN150.9491°
Arg. of periapsis201.5956°
True anomaly158.52445°
Mean anomaly158.1052°
Eccentric anomaly158.3153°
Mean motion3.70186 °/min
BSTAR0.046596
Orbital period97.25 mins
Loading maneuver chart data...
Loading historical data...
Loading historical data...
Loading historical data...
Loading historical data...
Loading historical data...
Loading historical data...
Loading historical data...

CZ-4B DEB Visibility forecast

Observer location: undefined°, undefined

This satellite is decayed
Span
Click to sort rows by Start time (UTC) header in descending order
Start Az.
Max El. time (UTC)
Max El. Az.
Max El.
End time (UTC)
End Az.
|